Regional Weather Roundup
Issued by NWS

Home | Current Version | Previous Version | Graphics & Text | Print | Product List | Glossary On
Versions: 1 2 3 4 5 6 7 8 9 10 11 12 13 14 15 16 17 18 19 20 21 22 23 24 25 26 27 28 29 30 31 32 33 34 35 36 37 38 39 40 41 42 43 44 45 46 47 48 49 50
875
ASUS44 KLIX 241901
RWRLA
LOUISIANA WEATHER ROUNDUP
NATIONAL WEATHER SERVICE NEW ORLEANS LA
200 PM CDT FRI OCT 24 2014

NOTE: "FAIR" INDICATES FEW OR NO CLOUDS BELOW 12,000 FEET WITH NO
      SIGNIFICANT WEATHER AND/OR OBSTRUCTIONS TO VISIBILITY.
      SKY/WX - SKY CONDITION AND SIGNIFICANT WEATHER.
      TMP - AIR TEMPERATURE.    DP   - DEWPOINT TEMPERATURE.
      RH  - RELATIVE HUMIDITY.  PRES - PRESSURE.
      HX  - HEAT INDEX.         WCI  - WIND CHILL INDEX.

*  THESE STATIONS ARE NOT NWS OR FAA STATIONS AND ARE NOT UNDER
   NWS QUALITY CONTROL.

LAZ040-048-061>063-065-066-069-242000-
SOUTHEAST LOUISIANA

CITY           SKY/WX    TMP DP  RH WIND       PRES   REMARKS
N.O. AUDUBON   NOT AVBL
N.O. INTL ARPT MOSUNNY   74  44  34 N8        30.06F
N.O. LAKEFRONT SUNNY     70  52  52 W8        30.06F
N.O. DOWNTOWN* FAIR      73  45  35 NW8       30.06F
SLIDELL        SUNNY     75  46  35 N5        30.05F
BATON ROUGE    SUNNY     75  43  31 VRB7      30.08F
BOOTHVILLE     SUNNY     72  53  51 N7        30.05F
BELLE CHASSE   SUNNY     76  41  28 VRB5      30.04F
BOGALUSA*        N/A     77  36  22 N8G18     30.08F
NEW ROADS*     FAIR      72  51  47 NW6       30.09F
GONZALES*      FAIR      74  47  38 NW6       30.07F
HAMMOND*       NOT AVBL
HOUMA*         SUNNY     75  48  38 N8        30.06F
PORT FOURCHON* CLEAR     75  48  38 N8        30.08F

$$

LAZ041-044-053-054-242000-
SOUTHWEST LOUISIANA

CITY           SKY/WX    TMP DP  RH WIND       PRES   REMARKS
LAKE CHARLES   SUNNY     75  48  38 N10       30.10F
LAFAYETTE      SUNNY     75  48  38 NE8G18    30.10F
PATTERSON      SUNNY     75  52  43 N9        30.10F
SALT POINT       N/A     77  50  38 VRB5      30.06F
NEW IBERIA     SUNNY     76  48  37 N10       30.10F
CHENAULT AIRPK NOT AVBL

$$

LAZ027-028-242000-
CENTRAL LOUISIANA

CITY           SKY/WX    TMP DP  RH WIND       PRES   REMARKS
FORT POLK      SUNNY     73  47  40 VRB5      30.11F
ALEXANDRIA INT SUNNY     72  45  37 CALM      30.09F
ALEXANDRIA     SUNNY     71  50  47 VRB3      30.11F

$$

LAZ001-002-242000-
NORTHWEST LOUISIANA

CITY           SKY/WX    TMP DP  RH WIND       PRES   REMARKS
SHREVEPORT     MOSUNNY   74  51  44 NW6       30.13F
BARKSDALE AFB  SUNNY     76  47  35 VRB2      30.13F
DTN SHREVEPORT SUNNY     72  49  44 NW5       30.13F

$$

LAZ014-016-242000-
NORTHEAST LOUISIANA

CITY           SKY/WX    TMP DP  RH WIND       PRES   REMARKS
MONROE         SUNNY     72  48  42 W6        30.13F
TALLULAH       SUNNY     72  42  34 VRB5      30.11F

$$




USA.gov is the U.S. government's official web portal to all federal, state and local government web resources and services.